Weather History for Pineville, WV

Change the Weather History Date:

Thursday, January 16, 2014

  Actual Average (KBKW) Record (KBKW)
Temperature  
Mean Temperature 28 °F 31 °F  
Max Temperature 39 °F 39 °F 69 °F (1932)
Min Temperature 17 °F 23 °F -15 °F (1972)
Degree Days  
Heating Degree Days 37 34  
Month to date heating degree days 544  
Since 1 July heating degree days 2637  
Cooling Degree Days 0 0  
Month to date cooling degree days 0  
Year to date cooling degree days 0  
Moisture  
Dew Point 22 °F    
Average Humidity 77    
Maximum Humidity 99    
Minimum Humidity 43    
Precipitation  
Precipitation 0.00 in 0.10 in 1.14 in (1907)
Month to date precipitation 1.47  
Year to date precipitation 1.47  
Snow  
Snow 0.00 in - - ()
Month to date snowfall  
Since 1 September snowfall  
Snow Depth -    
Sea Level Pressure  
Sea Level Pressure 29.96 in    
Wind  
Wind Speed - (North)    
Max Wind Speed -    
Max Gust Speed -    
Visibility 10 miles    
Events Snow    
T = Trace of Precipitation, MM = Missing Value Source: NWS Daily Summary

Daily Weather History Graph

Daily Weather History Graph

Search for Another Location

Airport:

Trip Planner

Search our weather history database for the weather conditions in past years. The results will help you decide how hot, cold, wet, or windy it might be!

Date:

Astronomy

Jan. 16, 2014 Rise Set
Actual Time 7:39 AM EST 5:32 PM EST
Civil Twilight 7:11 AM EST 6:01 PM EST
Nautical Twilight 6:38 AM EST 6:33 PM EST
Astronomical Twilight 6:07 AM EST 7:04 PM EST
Moon 6:21 PM EST (1/16) 7:34 AM EST (1/16)
Length of Visible Light 10h 50m
Length of Day
9h 53m
Full, 100% of the Moon is Illuminated
Jan 16
Full
Jan 24
Last Quarter
Jan 30
New
Feb 6
First Quarter
Feb 14
Full

Hourly Weather History & Observations

Time (EST) Temp. Dew Point Humidity Pressure Visibility Wind Dir Wind Speed Gust Speed Precip Events Conditions
12:15 AM 23.0 °F 21.9 °F 96% 30.03 in 10.0 mi North - - N/A   Clear
12:35 AM 22.6 °F 21.7 °F 96% 30.03 in 10.0 mi North - - N/A   Clear
12:55 AM 21.7 °F 21.2 °F 98% 30.02 in 10.0 mi North - - N/A   Clear
1:15 AM 21.4 °F 21.0 °F 99% 30.03 in 10.0 mi North - - N/A   Clear
1:35 AM 20.5 °F 20.1 °F 99% 30.03 in 10.0 mi North - - N/A   Clear
1:55 AM 20.3 °F 20.1 °F 99% 30.02 in 10.0 mi North - - N/A   Clear
2:15 AM 20.3 °F 20.1 °F 99% 30.03 in 10.0 mi North - - N/A   Clear
2:35 AM 19.6 °F 19.4 °F 99% 30.02 in 10.0 mi North - - N/A   Clear
2:55 AM 19.8 °F 19.4 °F 99% 30.03 in 10.0 mi North - - N/A   Clear
3:15 AM 19.2 °F 18.9 °F 98% 30.03 in 10.0 mi North - - N/A   Clear
3:35 AM 19.0 °F 18.7 °F 98% 30.03 in 10.0 mi North - - N/A   Clear
3:55 AM 18.9 °F 18.5 °F 98% 30.03 in 10.0 mi North - - N/A   Clear
4:15 AM 18.5 °F 18.1 °F 98% 30.03 in 10.0 mi North - - N/A   Clear
4:35 AM 18.3 °F 18.0 °F 98% 30.02 in 10.0 mi North - - N/A   Clear
4:55 AM 17.8 °F 17.6 °F 99% 30.02 in 10.0 mi North - - N/A   Scattered Clouds
5:15 AM 18.1 °F 17.6 °F 98% 30.02 in 10.0 mi North - - N/A   Mostly Cloudy
5:35 AM 17.6 °F 17.2 °F 98% 30.02 in 10.0 mi North - - N/A   Scattered Clouds
5:55 AM 18.0 °F 17.4 °F 98% 30.02 in 10.0 mi North - - N/A   Mostly Cloudy
6:15 AM 19.4 °F 19.2 °F 99% 30.03 in 10.0 mi North - - N/A   Overcast
6:35 AM 20.5 °F 20.3 °F 99% 30.03 in 10.0 mi North - - N/A   Overcast
6:55 AM 21.2 °F 20.8 °F 99% 30.02 in 10.0 mi North - - N/A   Overcast
7:15 AM 21.9 °F 21.4 °F 98% 30.03 in 10.0 mi North - - N/A   Overcast
7:35 AM 22.5 °F 21.9 °F 98% 30.03 in 10.0 mi North - - N/A   Overcast
7:55 AM 23.0 °F 22.1 °F 96% 30.04 in 10.0 mi North - - N/A   Overcast
8:15 AM 23.5 °F 21.7 °F 93% 30.04 in 10.0 mi North - - N/A   Overcast
8:35 AM 23.9 °F 21.2 °F 89% 30.04 in 10.0 mi North - - N/A   Overcast
8:55 AM 24.3 °F 21.0 °F 87% 30.04 in 10.0 mi North - - N/A   Overcast
9:15 AM 25.3 °F 21.0 °F 84% 30.04 in 10.0 mi North - - N/A   Overcast
9:35 AM 25.0 °F 19.9 °F 81% 30.04 in 10.0 mi North - - N/A   Mostly Cloudy
9:55 AM 27.0 °F 19.9 °F 75% 30.03 in 10.0 mi North - - N/A   Mostly Cloudy
10:15 AM 27.7 °F 19.8 °F 72% 30.03 in 10.0 mi North - - N/A   Scattered Clouds
10:35 AM 28.9 °F 20.7 °F 71% 30.03 in 10.0 mi North - - N/A   Scattered Clouds
10:55 AM 29.5 °F 20.3 °F 69% 30.02 in 10.0 mi North - - N/A   Clear
11:15 AM 30.6 °F 20.5 °F 66% 30.00 in 10.0 mi North - - N/A   Scattered Clouds
11:35 AM 31.3 °F 20.7 °F 65% 29.99 in 10.0 mi North - - N/A   Clear
11:55 AM 32.2 °F 21.2 °F 64% 29.96 in 10.0 mi North - - N/A   Clear
12:15 PM 32.2 °F 20.7 °F 63% 29.94 in 10.0 mi North - - N/A   Clear
12:35 PM 33.8 °F 22.3 °F 63% 29.93 in 10.0 mi North - - N/A   Clear
12:55 PM 34.0 °F 20.3 °F 57% 29.92 in 10.0 mi North - - N/A   Clear
1:15 PM 35.2 °F 20.1 °F 54% 29.91 in 10.0 mi North - - N/A   Clear
1:35 PM 36.5 °F 21.2 °F 54% 29.90 in 10.0 mi North - - N/A   Clear
1:55 PM 37.0 °F 19.6 °F 49% 29.90 in 10.0 mi North - - N/A   Clear
2:15 PM 37.4 °F 19.0 °F 48% 29.89 in 10.0 mi North - - N/A   Clear
2:35 PM 38.8 °F 19.2 °F 45% 29.89 in 10.0 mi North - - N/A   Clear
2:55 PM 39.9 °F 18.9 °F 43% 29.89 in 10.0 mi North - - N/A   Clear
3:35 PM 37.6 °F 17.6 °F 44% 29.89 in 10.0 mi North - - N/A   Overcast
3:55 PM 37.8 °F 18.7 °F 46% 29.88 in 10.0 mi North - - N/A   Overcast
4:15 PM 37.6 °F 18.7 °F 47% 29.87 in 10.0 mi North - - N/A   Overcast
4:35 PM 37.9 °F 18.5 °F 46% 29.88 in 10.0 mi North - - N/A   Overcast
4:55 PM 37.4 °F 18.9 °F 47% 29.87 in 10.0 mi North - - N/A   Overcast
5:15 PM 36.7 °F 21.6 °F 54% 29.87 in 10.0 mi North - - N/A   Overcast
5:35 PM 36.1 °F 22.1 °F 57% 29.88 in 10.0 mi North - - N/A   Overcast
5:55 PM 34.7 °F 29.1 °F 80% 29.89 in 10.0 mi North - - N/A   Overcast
6:15 PM 34.9 °F 25.9 °F 70% 29.87 in 10.0 mi North - - N/A   Overcast
6:35 PM 34.2 °F 28.6 °F 80% 29.88 in 10.0 mi North - - N/A   Overcast
6:55 PM 33.8 °F 27.5 °F 78% 29.89 in 10.0 mi North - - N/A   Overcast
7:15 PM 34.2 °F 26.6 °F 74% 29.89 in 10.0 mi North - - N/A   Overcast
7:35 PM 34.2 °F 28.4 °F 79% 29.89 in 10.0 mi North - - N/A   Overcast
7:55 PM 33.8 °F 27.5 °F 78% 29.89 in 10.0 mi North - - N/A   Overcast
8:15 PM 33.8 °F 28.4 °F 81% 29.89 in 10.0 mi North - - N/A   Overcast
8:35 PM 34.9 °F 24.6 °F 66% 29.90 in 10.0 mi North - - N/A   Overcast
8:55 PM 34.5 °F 26.2 °F 72% 29.90 in 10.0 mi North - - N/A   Overcast
9:15 PM 34.2 °F 25.9 °F 72% 29.92 in 10.0 mi North - - N/A   Overcast
9:35 PM 36.0 °F 25.2 °F 65% 29.92 in 10.0 mi North - - N/A   Overcast
9:55 PM 34.9 °F 28.0 °F 76% 29.93 in 10.0 mi North - - N/A   Overcast
10:15 PM 34.7 °F 27.3 °F 74% 29.93 in 10.0 mi North - - N/A   Overcast
10:35 PM 36.5 °F 25.7 °F 65% 29.94 in 10.0 mi North - - N/A   Overcast
10:55 PM 36.0 °F 26.1 °F 67% 29.94 in 10.0 mi North - - N/A Snow Light Snow
11:15 PM 35.6 °F 27.7 °F 73% 29.94 in 10.0 mi North - - N/A   Overcast
11:35 PM 34.7 °F 28.2 °F 77% 29.94 in 5.0 mi North - - N/A Snow Light Snow
11:55 PM 34.2 °F 28.9 °F 81% 29.94 in 10.0 mi North - - N/A   Overcast